Radiation Dose measured at exhaust stack monitor of Fukushima Daiichi Nuclear Power Station
Date,Time,Unit 5 6 shared exhaust cylinders,Wind Direction,Wind Velocity(m/s)
2023/02/03,00:00,3.8,north-northwest,5.5
2023/02/03,00:10,3.9,north-northwest,5.6
2023/02/03,00:20,3.9,north-northwest,6.7
2023/02/03,00:30,3.8,northwest,6.0
2023/02/03,00:40,3.9,north-northwest,5.7
2023/02/03,00:50,3.8,northwest,6.9
2023/02/03,01:00,3.9,north-northwest,7.7
2023/02/03,01:10,3.8,north-northwest,6.3
2023/02/03,01:20,4.0,north-northwest,4.3
2023/02/03,01:30,4.0,north-northwest,3.4
2023/02/03,01:40,3.9,north,3.8
2023/02/03,01:50,3.9,north,4.2
2023/02/03,02:00,3.9,north,3.2
2023/02/03,02:10,4.1,north,3.1
2023/02/03,02:20,3.7,north-northwest,3.5
2023/02/03,02:30,3.9,north-northwest,4.8
2023/02/03,02:40,4.0,north-northwest,6.0
2023/02/03,02:50,3.8,north,6.0
2023/02/03,03:00,4.0,north-northwest,5.7
2023/02/03,03:10,4.0,north-northwest,5.8
2023/02/03,03:20,3.9,north,5.0
2023/02/03,03:30,3.9,north,4.5
2023/02/03,03:40,3.9,north-northwest,4.5
2023/02/03,03:50,4.0,north-northwest,4.7
2023/02/03,04:00,3.8,north-northwest,4.4
2023/02/03,04:10,4.0,north-northwest,5.4
2023/02/03,04:20,3.9,north-northwest,5.6
2023/02/03,04:30,3.8,northwest,5.8
2023/02/03,04:40,3.9,northwest,6.8
2023/02/03,04:50,3.9,northwest,7.3
2023/02/03,05:00,4.1,northwest,6.4
2023/02/03,05:10,4.0,northwest,5.6
2023/02/03,05:20,3.8,northwest,5.6
2023/02/03,05:30,3.8,northwest,4.2
2023/02/03,05:40,4.0,northwest,5.9
2023/02/03,05:50,3.8,northwest,5.4
2023/02/03,06:00,3.8,northwest,5.8
2023/02/03,06:10,4.0,northwest,5.6
2023/02/03,06:20,4.0,northwest,5.4
2023/02/03,06:30,3.8,north-northwest,4.5
2023/02/03,06:40,3.8,north-northwest,4.5
2023/02/03,06:50,4.0,north-northwest,4.5
2023/02/03,07:00,3.9,northwest,5.1
2023/02/03,07:10,3.9,northwest,6.3
2023/02/03,07:20,3.8,northwest,5.9
2023/02/03,07:30,3.8,northwest,4.6
2023/02/03,07:40,3.9,northwest,4.3
2023/02/03,07:50,3.7,northwest,4.5
2023/02/03,08:00,3.8,northwest,6.2
2023/02/03,08:10,3.9,northwest,3.7
2023/02/03,08:20,3.9,northwest,4.1
2023/02/03,08:30,4.0,northwest,6.4
2023/02/03,08:40,3.9,northwest,3.7
2023/02/03,08:50,3.8,northwest,3.7
2023/02/03,09:00,4.0,northwest,3.6
2023/02/03,09:10,3.9,north-northwest,1.9
2023/02/03,09:20,4.0,northwest,2.6
2023/02/03,09:30,3.8,north-northwest,3.3
2023/02/03,09:40,3.9,northwest,5.6
2023/02/03,09:50,3.8,north-northwest,4.0
2023/02/03,10:00,3.8,northwest,5.3
2023/02/03,10:10,3.9,north-northwest,4.2
2023/02/03,10:20,4.2,north-northwest,3.9
2023/02/03,10:30,3.8,north-northwest,2.9
2023/02/03,10:40,3.9,north,2.8
2023/02/03,10:50,3.9,north,3.0
2023/02/03,11:00,3.9,north,3.4
2023/02/03,11:10,3.8,north,2.6
2023/02/03,11:20,4.0,north-northwest,3.1
2023/02/03,11:30,3.8,north,2.5
2023/02/03,11:40,3.9,northwest,3.7
2023/02/03,11:50,4.0,north-northwest,4.5
2023/02/03,12:00,4.1,north-northwest,4.5
2023/02/03,12:10,3.8,north-northwest,3.2
2023/02/03,12:20,3.8,north-northeast,4.2
2023/02/03,12:30,3.9,north-northeast,5.7
2023/02/03,12:40,4.1,north-northwest,4.6
2023/02/03,12:50,4.1,north,4.8
2023/02/03,13:00,3.9,north,5.7
2023/02/03,13:10,3.8,north,5.4
2023/02/03,13:20,3.9,north-northeast,6.3
2023/02/03,13:30,3.9,north,5.1
2023/02/03,13:40,4.0,north,3.6
2023/02/03,13:50,3.9,north,4.3
2023/02/03,14:00,4.0,north,4.7
2023/02/03,14:10,3.9,north,5.9
2023/02/03,14:20,3.8,north-northwest,5.2
2023/02/03,14:30,4.1,north-northwest,6.5
2023/02/03,14:40,3.9,north-northwest,6.1
2023/02/03,14:50,3.9,north-northwest,6.2
2023/02/03,15:00,4.0,north,5.3
2023/02/03,15:10,3.9,north-northwest,5.5
2023/02/03,15:20,3.9,north-northwest,4.0
2023/02/03,15:30,3.9,north-northwest,3.6
2023/02/03,15:40,4.0,north-northwest,4.3
2023/02/03,15:50,3.9,north,3.4
2023/02/03,16:00,3.7,north,3.3
2023/02/03,16:10,3.9,north-northwest,3.6
2023/02/03,16:20,3.9,north-northwest,3.9
2023/02/03,16:30,3.9,north-northwest,3.8
2023/02/03,16:40,3.8,north-northwest,4.8
2023/02/03,16:50,3.9,north-northwest,4.1
2023/02/03,17:00,4.0,north-northwest,3.5
2023/02/03,17:10,3.8,north-northwest,4.0
2023/02/03,17:20,3.9,northwest,4.7
2023/02/03,17:30,3.8,north-northwest,3.5
2023/02/03,17:40,3.9,north-northwest,3.1
2023/02/03,17:50,3.9,north-northwest,4.0
2023/02/03,18:00,3.8,northwest,3.2
2023/02/03,18:10,3.8,northwest,3.5
2023/02/03,18:20,3.9,northwest,4.2
2023/02/03,18:30,3.8,north-northwest,4.7
2023/02/03,18:40,3.9,northwest,3.8
2023/02/03,18:50,3.8,northwest,4.5
2023/02/03,19:00,3.8,northwest,3.9
2023/02/03,19:10,3.7,northwest,4.9
2023/02/03,19:20,3.9,northwest,4.7
2023/02/03,19:30,3.9,northwest,4.9
2023/02/03,19:40,3.9,north-northwest,5.3
2023/02/03,19:50,3.9,northwest,5.5
2023/02/03,20:00,3.7,northwest,4.7
2023/02/03,20:10,3.9,northwest,5.9
2023/02/03,20:20,3.9,northwest,5.5
2023/02/03,20:30,3.9,northwest,5.4
2023/02/03,20:40,4.0,northwest,5.0
2023/02/03,20:50,4.0,northwest,6.3
2023/02/03,21:00,3.9,northwest,6.3
2023/02/03,21:10,4.1,northwest,5.0
2023/02/03,21:20,3.9,west-northwest,4.8
2023/02/03,21:30,3.8,west-northwest,4.0
2023/02/03,21:40,3.9,northwest,3.1
2023/02/03,21:50,3.7,west-northwest,2.3
2023/02/03,22:00,4.0,north-northwest,1.2
2023/02/03,22:10,4.1,north,1.7
2023/02/03,22:20,3.9,northwest,2.8
2023/02/03,22:30,3.9,north-northwest,2.9
2023/02/03,22:40,3.8,north-northwest,3.7
2023/02/03,22:50,3.8,northwest,3.0
2023/02/03,23:00,3.9,west-northwest,3.1
2023/02/03,23:10,4.0,west-northwest,4.1
2023/02/03,23:20,3.9,west-northwest,3.6
2023/02/03,23:30,3.8,west-northwest,4.0
2023/02/03,23:40,3.8,west-northwest,3.4
2023/02/03,23:50,3.8,west-northwest,3.4
